When you browse on this site, cookies collect data to enhance your experience and personalize the content and advertising you see.
Visit our Privacy Policy to learn more. By continuing to use the site, you agree to this use of cookies and data.

Meteo orario Tymchenky

Oggi, 12 Agosto, Mercoledi

Tempo Temperatura Precipitazioni Vento Pressione Umidità
00:00 +17°C° 0 mm 3 m/s 746 mm Hg 92%
01:00 +16°C° 0 mm 3 m/s 746 mm Hg 94%
02:00 +16°C° 0 mm 3 m/s 746 mm Hg 95%
03:00 +14°C° 0 mm 3 m/s 746 mm Hg 95%
04:00 +14°C° 0 mm 3 m/s 746 mm Hg 94%
05:00 +13°C° 0 mm 3 m/s 746 mm Hg 93%
06:00 +14°C° 0 mm 4 m/s 746 mm Hg 87%
07:00 +15°C° 0 mm 4 m/s 747 mm Hg 82%
08:00 +16°C° 0 mm 5 m/s 747 mm Hg 76%
09:00 +19°C° 0 mm 5 m/s 747 mm Hg 69%
10:00 +20°C° 0 mm 5 m/s 747 mm Hg 62%
11:00 +21°C° 0 mm 5 m/s 747 mm Hg 55%
12:00 +21°C° 0 mm 5 m/s 747 mm Hg 54%
13:00 +21°C° 0 mm 5 m/s 747 mm Hg 53%
14:00 +21°C° 0 mm 5 m/s 747 mm Hg 52%
15:00 +21°C° 0 mm 5 m/s 748 mm Hg 53%
16:00 +21°C° 0 mm 5 m/s 748 mm Hg 55%
17:00 +20°C° 0 mm 5 m/s 748 mm Hg 56%
18:00 +18°C° 0 mm 4 m/s 748 mm Hg 64%
19:00 +17°C° 0 mm 4 m/s 748 mm Hg 73%
20:00 +14°C° 0 mm 3 m/s 748 mm Hg 81%
21:00 +13°C° 0 mm 3 m/s 748 mm Hg 84%
22:00 +13°C° 0 mm 3 m/s 749 mm Hg 88%
23:00 +12°C° 0 mm 3 m/s 749 mm Hg 91%

Domani, 13 Agosto, Giovedi

Tempo Temperatura Precipitazioni Vento Pressione Umidità
00:00 +12°C° 0 mm 3 m/s 749 mm Hg 93%
01:00 +11°C° 0 mm 3 m/s 749 mm Hg 94%
02:00 +11°C° 0 mm 3 m/s 749 mm Hg 96%
03:00 +11°C° 0 mm 3 m/s 749 mm Hg 96%
04:00 +10°C° 0 mm 3 m/s 749 mm Hg 96%
05:00 +10°C° 0 mm 3 m/s 749 mm Hg 96%
06:00 +12°C° 0 mm 3 m/s 748 mm Hg 88%
07:00 +14°C° 0 mm 4 m/s 748 mm Hg 79%
08:00 +17°C° 0 mm 4 m/s 748 mm Hg 70%
09:00 +17°C° 0 mm 5 m/s 748 mm Hg 64%
10:00 +20°C° 0 mm 5 m/s 748 mm Hg 59%
11:00 +21°C° 0 mm 5 m/s 749 mm Hg 53%
12:00 +21°C° 0.1 mm 5 m/s 748 mm Hg 52%
13:00 +21°C° 0.1 mm 5 m/s 748 mm Hg 52%
14:00 +21°C° 0.1 mm 5 m/s 748 mm Hg 51%
15:00 +21°C° 0 mm 5 m/s 748 mm Hg 53%
16:00 +20°C° 0 mm 5 m/s 748 mm Hg 55%
17:00 +20°C° 0 mm 5 m/s 748 mm Hg 57%
18:00 +18°C° 0 mm 4 m/s 748 mm Hg 65%
19:00 +16°C° 0 mm 3 m/s 748 mm Hg 72%
20:00 +14°C° 0 mm 3 m/s 748 mm Hg 79%
21:00 +13°C° 0 mm 3 m/s 748 mm Hg 82%
22:00 +12°C° 0 mm 3 m/s 748 mm Hg 84%
23:00 +11°C° 0 mm 3 m/s 749 mm Hg 86%

Dopodomani, 14 Agosto, Venerdi

Tempo Temperatura Precipitazioni Vento Pressione Umidità
00:00 +11°C° 0 mm 3 m/s 749 mm Hg 87%
01:00 +10°C° 0 mm 3 m/s 749 mm Hg 88%
02:00 +10°C° 0 mm 3 m/s 749 mm Hg 88%
03:00 +9°C° 0 mm 3 m/s 749 mm Hg 88%
04:00 +9°C° 0 mm 3 m/s 749 mm Hg 87%
05:00 +9°C° 0 mm 3 m/s 749 mm Hg 87%
06:00 +11°C° 0 mm 3 m/s 749 mm Hg 79%
07:00 +13°C° 0 mm 4 m/s 749 mm Hg 70%
08:00 +15°C° 0 mm 4 m/s 749 mm Hg 62%
09:00 +17°C° 0 mm 4 m/s 749 mm Hg 59%
10:00 +18°C° 0 mm 4 m/s 749 mm Hg 56%
11:00 +19°C° 0 mm 4 m/s 749 mm Hg 53%
12:00 +19°C° 0 mm 4 m/s 749 mm Hg 52%
13:00 +19°C° 0 mm 4 m/s 749 mm Hg 51%
14:00 +20°C° 0 mm 4 m/s 749 mm Hg 49%
15:00 +19°C° 0 mm 4 m/s 749 mm Hg 50%
16:00 +19°C° 0 mm 4 m/s 749 mm Hg 51%
17:00 +19°C° 0 mm 4 m/s 749 mm Hg 52%
18:00 +17°C° 0 mm 3 m/s 749 mm Hg 59%
19:00 +14°C° 0 mm 3 m/s 749 mm Hg 66%
20:00 +14°C° 0 mm 2 m/s 750 mm Hg 73%
21:00 +13°C° 0 mm 2 m/s 750 mm Hg 75%
22:00 +12°C° 0 mm 2 m/s 750 mm Hg 78%
23:00 +12°C° 0 mm 2 m/s 750 mm Hg 80%

15 Agosto, Sabato

Tempo Temperatura Precipitazioni Vento Pressione Umidità
00:00 +10°C° 0 mm 2 m/s 750 mm Hg 82%
01:00 +10°C° 0 mm 2 m/s 750 mm Hg 83%
02:00 +10°C° 0 mm 2 m/s 750 mm Hg 85%
03:00 +9°C° 0 mm 2 m/s 750 mm Hg 87%
04:00 +9°C° 0 mm 2 m/s 750 mm Hg 88%
05:00 +9°C° 0 mm 2 m/s 750 mm Hg 90%
06:00 +11°C° 0 mm 3 m/s 751 mm Hg 80%
07:00 +13°C° 0 mm 3 m/s 751 mm Hg 71%
08:00 +16°C° 0 mm 3 m/s 751 mm Hg 62%
09:00 +17°C° 0 mm 3 m/s 751 mm Hg 56%
10:00 +19°C° 0 mm 3 m/s 751 mm Hg 50%
11:00 +20°C° 0 mm 4 m/s 752 mm Hg 44%
12:00 +20°C° 0 mm 4 m/s 751 mm Hg 44%
13:00 +20°C° 0 mm 4 m/s 751 mm Hg 44%
14:00 +21°C° 0 mm 4 m/s 751 mm Hg 44%
15:00 +20°C° 0 mm 4 m/s 751 mm Hg 45%
16:00 +20°C° 0 mm 4 m/s 751 mm Hg 47%
17:00 +20°C° 0 mm 3 m/s 751 mm Hg 49%
18:00 +18°C° 0 mm 3 m/s 751 mm Hg 55%
19:00 +16°C° 0 mm 2 m/s 751 mm Hg 61%
20:00 +14°C° 0 mm 1 m/s 751 mm Hg 67%
21:00 +14°C° 0 mm 1 m/s 751 mm Hg 69%
22:00 +13°C° 0 mm 1 m/s 751 mm Hg 71%
23:00 +13°C° 0 mm 1 m/s 751 mm Hg 73%

16 Agosto, Domenica

Tempo Temperatura Precipitazioni Vento Pressione Umidità
00:00 +12°C° 0 mm 2 m/s 751 mm Hg 75%
01:00 +12°C° 0 mm 2 m/s 751 mm Hg 77%
02:00 +12°C° 0 mm 2 m/s 751 mm Hg 78%
03:00 +10°C° 0 mm 2 m/s 751 mm Hg 82%
04:00 +10°C° 0 mm 2 m/s 751 mm Hg 85%
05:00 +10°C° 0 mm 2 m/s 751 mm Hg 88%
06:00 +13°C° 0 mm 2 m/s 751 mm Hg 79%
07:00 +16°C° 0 mm 2 m/s 752 mm Hg 69%
08:00 +18°C° 0 mm 3 m/s 752 mm Hg 60%
09:00 +19°C° 0 mm 3 m/s 752 mm Hg 56%
10:00 +21°C° 0 mm 3 m/s 752 mm Hg 52%
11:00 +22°C° 0 mm 3 m/s 752 mm Hg 48%
12:00 +22°C° 0 mm 3 m/s 752 mm Hg 47%
13:00 +24°C° 0 mm 3 m/s 751 mm Hg 47%
14:00 +23°C° 0 mm 4 m/s 751 mm Hg 46%
15:00 +24°C° 0 mm 3 m/s 751 mm Hg 48%
16:00 +22°C° 0 mm 3 m/s 751 mm Hg 51%
17:00 +22°C° 0 mm 3 m/s 751 mm Hg 53%
18:00 +20°C° 0 mm 2 m/s 751 mm Hg 59%
19:00 +18°C° 0 mm 2 m/s 751 mm Hg 65%
20:00 +17°C° 0 mm 2 m/s 751 mm Hg 70%
21:00 +16°C° 0 mm 2 m/s 751 mm Hg 73%
22:00 +16°C° 0 mm 2 m/s 751 mm Hg 76%
23:00 +15°C° 0 mm 2 m/s 751 mm Hg 79%

17 Agosto, Lunedi

Tempo Temperatura Precipitazioni Vento Pressione Umidità
00:00 +15°C° 0 mm 2 m/s 751 mm Hg 81%
01:00 +15°C° 0 mm 2 m/s 750 mm Hg 83%
02:00 +14°C° 0 mm 2 m/s 750 mm Hg 86%
03:00 +14°C° 0 mm 2 m/s 750 mm Hg 88%
04:00 +14°C° 0 mm 2 m/s 750 mm Hg 90%
05:00 +14°C° 0 mm 2 m/s 750 mm Hg 93%
06:00 +16°C° 0 mm 2 m/s 750 mm Hg 85%
07:00 +18°C° 0 mm 3 m/s 750 mm Hg 78%
08:00 +21°C° 0 mm 3 m/s 750 mm Hg 70%
09:00 +22°C° 0 mm 3 m/s 750 mm Hg 64%
10:00 +25°C° 0 mm 3 m/s 750 mm Hg 57%
11:00 +26°C° 0 mm 4 m/s 750 mm Hg 51%
12:00 +27°C° 0 mm 4 m/s 750 mm Hg 50%
13:00 +27°C° 0 mm 4 m/s 750 mm Hg 50%
14:00 +28°C° 0 mm 4 m/s 750 mm Hg 49%
15:00 +27°C° 0.1 mm 4 m/s 750 mm Hg 52%
16:00 +27°C° 0.1 mm 4 m/s 749 mm Hg 54%
17:00 +27°C° 0.1 mm 4 m/s 749 mm Hg 57%
18:00 +25°C° 0.5 mm 3 m/s 749 mm Hg 65%
19:00 +22°C° 0.5 mm 3 m/s 749 mm Hg 74%
20:00 +20°C° 0.5 mm 2 m/s 749 mm Hg 82%
21:00 +20°C° 0.2 mm 2 m/s 749 mm Hg 85%
22:00 +19°C° 0.2 mm 2 m/s 749 mm Hg 87%
23:00 +19°C° 0.2 mm 2 m/s 749 mm Hg 89%
Mostrare altro